This demonstration page uses our WeatherBlox Daily Observations layout. Learn more.

Left ArrowRight Arrow

Hourly Observations for April 19, 2020

Temp ( °F °C ) Dew Point ( °F °C ) Humidity (%) Winds ( mph kmh ) Pressure ( in mb ) Visibility ( mi km ) Precip ( " mm )
12:52 am 00:52 Partly Cloudy 50 10 38 3.3 63 63 ESE 5 7 29.78 1009 10 16 0.00 0.00
1:52 am 01:52 Partly Cloudy 46 7.8 37 2.8 71 71 NNE 10 17 29.79 1009 10 16 0.00 0.00
2:52 am 02:52 Partly Cloudy 45 7.2 37 2.8 74 74 N 9 15 29.79 1009 10 16 0.00 0.00
3:52 am 03:52 Mostly Clear 44 6.7 37 2.8 76 76 N 9 15 29.80 1009 10 16 0.00 0.00
4:52 am 04:52 Mostly Clear 44 6.7 37 2.8 76 76 NNW 10 17 29.83 1010 10 16 0.00 0.00
5:52 am 05:52 Partly Cloudy 42 5.6 36 2.2 79 79 NNW 9 15 29.83 1010 10 16 0.00 0.00
6:52 am 06:52 Partly Cloudy 42 5.6 36 2.2 79 79 N 10 17 29.84 1011 10 16 0.00 0.00
7:52 am 07:52 Partly Cloudy 45 7.2 38 3.3 77 77 N 12 19 29.88 1012 10 16 0.00 0.00
8:52 am 08:52 Partly Cloudy 51 10.6 34 1.1 52 52 NNE 16 26 29.91 1013 10 16 0.00 0.00
9:52 am 09:52 Mostly Cloudy 52 11.1 33 0.6 49 49 NNE 16 26 29.92 1013 10 16 0.00 0.00
10:52 am 10:52 Mostly Cloudy 55 12.8 32 0 42 42 NNE 14 22 29.94 1014 10 16 0.00 0.00
11:52 am 11:52 Mostly Cloudy 58 14.4 33 0.6 39 39 NNE 7 11 29.95 1014 10 16 0.00 0.00
12:52 pm 12:52 Mostly Cloudy 60 15.6 32 0 35 35 NNE 12 19 29.93 1014 10 16 0.00 0.00
1:52 pm 13:52 Partly Cloudy 61 16.1 32 0 34 34 E 9 15 29.91 1013 10 16 0.00 0.00
2:52 pm 14:52 Mostly Cloudy 61 16.1 32 0 34 34 NNW 6 9 29.89 1012 10 16 0.00 0.00
3:52 pm 15:52 Partly Cloudy 62 16.7 31 -0.6 31 31 NNW 8 13 29.87 1012 10 16 0.00 0.00
4:52 pm 16:52 Mostly Cloudy 63 17.2 32 0 31 31 N 14 22 29.86 1011 10 16 0.00 0.00
5:52 pm 17:52 Mostly Cloudy 59 15 33 0.6 38 38 N 12 19 29.86 1011 10 16 0.00 0.00
6:52 pm 18:52 Partly Cloudy 60 15.6 31 -0.6 33 33 NNW 9 15 29.85 1011 10 16 0.00 0.00
7:52 pm 19:52 Mostly Cloudy 56 13.3 32 0 40 40 NNW 10 17 29.85 1011 10 16 0.00 0.00
8:52 pm 20:52 Partly Cloudy 52 11.1 33 0.6 49 49 N 6 9 29.87 1012 10 16 0.00 0.00
9:52 pm 21:52 Mostly Cloudy 50 10 35 1.7 57 57 N 5 7 29.88 1012 10 16 0.00 0.00
10:52 pm 22:52 Mostly Cloudy 48 8.9 35 1.7 61 61 N 5 7 29.89 1012 10 16 0.00 0.00
11:52 pm 23:52 Mostly Cloudy 50 10 33 0.6 52 52 Calm 29.88 1012 10 16 0.00 0.00

Powered by AerisWeather